Regional Weather Roundup
Issued by NWS

Home | Current Version | Previous Version | Graphics & Text | Print | Product List | Glossary On
Versions: 1 2 3 4 5 6 7 8 9 10 11 12 13 14 15 16 17 18 19 20 21 22 23 24 25 26 27
000
ASUS45 KBOU 080607
RWRCO

WEATHER ROUNDUP FOR COLORADO
NATIONAL WEATHER SERVICE DENVER/BOULDER CO
1100 PM MST WED DEC 07 2016

NOTE: "FAIR" INDICATES FEW OR NO CLOUDS BELOW 12000 FEET WITH NO
SIGNIFICANT WEATHER AND/OR OBSTRUCTIONS TO VISIBILITY.

COZ001>005-013-030-031-080700-
...NORTHWEST COLORADO...

CITY           SKY/WX    TMP DP  RH WIND       PRES   REMARKS
CRAIG          FAIR      -6 -13  71 CALM      30.32R
HAYDEN         FAIR      -2  -9  71 SE10      30.28S WCI -19
MEEKER         FAIR      -7 -12  79 NE3       30.29R
MOUNT WERNER   NOT AVBL
STEAMBOAT SPGS FAIR      -4  -9  81 CALM      30.28S
WALDEN           N/A    -15 -22  70 SE8       30.21R WCI -32
$$

COZ006>008-011-080700-
...WEST CENTRAL VALLEYS...

CITY           SKY/WX    TMP DP  RH WIND       PRES   REMARKS
GRAND JUNCTION FAIR      19   9  65 CALM      30.30R
MONTROSE       FAIR      13   5  70 SE12      30.31R WCI  -1
EAGLE          FAIR       0  -6  76 E6        30.33R WCI -12
RIFLE          FAIR      11   3  70 CALM      30.33R
DELTA          NOT AVBL
NUCLA          FAIR      16   1  53 E12       30.29S WCI   3
$$

COZ017>023-064>068-080700-
...SOUTHWEST COLORADO...

CITY           SKY/WX    TMP DP  RH WIND       PRES   REMARKS
DURANGO        FAIR      11   0  61 E3        30.22R
CORTEZ         FAIR      14   5  67 NE7       30.26R WCI   4
PAGOSA SPRINGS FAIR       9  -1  62 CALM      30.20R
TELLURIDE      FAIR       4  -4  66 E3        30.16R
WOLF CREEK PAS FAIR       0  -6  78 S16       30.09R WCI -21
$$

COZ009-010-012-014-032>034-037-058>063-080700-
...CENTRAL COLORADO...

CITY           SKY/WX    TMP DP  RH WIND       PRES   REMARKS
ASPEN          FAIR       1  -6  72 SW8       30.20S WCI -13
BUENA VISTA    FAIR      -1  -9  70 E3        30.21R
COPPER MTN     FAIR      -4 -13  65 MISG      29.99R
BERTHOUD PASS  FAIR     -13 -24  58 MISG      29.91R
COTTONWOOD PAS FAIR       7  -2  66 SE5       30.10S WCI  -2
GUNNISON       FAIR      -2  -7  79 E3        30.24R
KREMMLING      FAIR      -6 -13  71 CALM      30.29R
LEADVILLE      FAIR     -11 -16  78 NE9       30.08R WCI -29
MONARCH PASS   FAIR      -4  -8  84 W24       30.10S WCI -29
SALIDA         FAIR       9   4  80 SE3       30.31R
SUNLIGHT       FAIR     N/A N/A N/A S5        30.12S
WILKERSON PASS FAIR      -4 -13  65 W7        30.05R WCI -18
$$

COZ069>075-080700-
...SAN LUIS VALLEY/SANGRE DE CRISTO MOUNTAINS...

CITY           SKY/WX    TMP DP  RH WIND       PRES   REMARKS
ALAMOSA        FAIR       1  -4  79 E6        30.20R WCI -10
LA VETA PASS   FAIR       3  -2  78 N8        30.09S WCI -10
SAGUACHE       FAIR      12   0  57 NW13      30.19S WCI  -3
$$

COZ035-036-038>040-080700-
...NORTHERN COLORADO FRONT RANGE...

CITY           SKY/WX    TMP DP  RH WIND       PRES   REMARKS
DENVER INTL AP FAIR      -7 -12  79 S9        30.38R WCI -24
DMNS CITY PARK   N/A      4   0  83 E3G13     30.40R
AURORA         PTCLDY     2  -1  87 E6        30.37R WCI  -9
FRONT RANGE AP FAIR      -6  -9  84 S7        30.39R WCI -20
ERIE MUNI ARPT FAIR      -6 -10  82 CALM      30.42R
BOULDER MUN AP CLOUDY     7   5  92 CALM      30.40R
CENTENNIAL     FAIR       1  -2  87 S6        30.35R WCI -10
BROOMFIELD     CLOUDY     9   3  78 CALM      30.37R
FORT COLLINS   FAIR       1   0  92 S5        30.42R WCI  -8
LONGMONT       MOCLDY     4   0  82 CALM      30.44R
$$

COZ041-046-047-076>085-087-088-080700-
...PIKES PEAK/PALMER DIVIDE AND SOUTHERN FOOTHILLS...

CITY           SKY/WX    TMP DP  RH WIND       PRES   REMARKS
COLO. SPRINGS  LGT SNOW   7   3  84 S5        30.34S FOG     WCI  -2
A. F. ACADEMY  FLURRIES   3  -2  78 N5        30.30R WCI  -6
SCHRIEVER AFB  NOT AVBL
ELLICOTT       LGT SNOW N/A N/A N/A CALM        N/A
FALCON         FLURRIES   8   6  92 SW9       30.29S WCI  -6
FORT CARSON    LGT SNOW   7   4  85 S8        30.34S WCI  -5
LIMON          FAIR      -8 -11  86 CALM      30.41R
MONUMENT HILL  FAIR      -6  -9  84 S5        30.27S WCI -17
TRINIDAD       CLOUDY    13  10  88 E7        30.36R WCI   3
$$

COZ042>045-048>051-090-091-080700-
...NORTHEAST COLORADO...

CITY           SKY/WX    TMP DP  RH WIND       PRES   REMARKS
GREELEY ARPT   FAIR     -12 -18  74 N7        30.47R WCI -27
AKRON          FAIR      -6 -11  79 SW8       30.44R WCI -21
BURLINGTON     FAIR       0  -7  72 W13       30.47R WCI -18
WRAY           FAIR      -6 -11  77 W8        30.52R WCI -21
STERLING       FAIR      -8 -13  77 S7        30.48R WCI -22
HOLYOKE        FAIR       0  -8  71 W8        30.50R WCI -15
FORT MORGAN    FAIR      -7 -12  77 W6        30.47R WCI -20
$$

COZ086-089-092>099-080700-
...SOUTHEAST COLORADO...

CITY           SKY/WX    TMP DP  RH WIND       PRES   REMARKS
PUEBLO         CLOUDY    15   6  67 E6        30.44R WCI   6
LA JUNTA       CLOUDY    14   5  67 N3        30.47S
LAMAR          CLOUDY    13   4  67 N6        30.50R WCI   4
SPRINGFIELD      N/A     13   8  81 N5        30.46R WCI   5
$$




USA.gov is the U.S. government's official web portal to all federal, state and local government web resources and services.